YZ-1S DEB, 49385

Orbit data source: Space-Track

YZ-1S DEB, 49385 is space debris in SSO originally from a launch on Wed, 03 Nov 2021 UTC launched from the Jiuquan Satellite Launch Center, China (JSC). Debris objects in space refer to the collection of defunct objects orbiting the Earth. Examples of debris include non-operational satellites, rocket bodies, and fragments generated from explosions, collisions, or faulty payload assembly.

Loading next visibility...
Identifier
49385, 2021-099C
Orbit
SSO
Country
Flag of CNCN / PRC
Related business
Manufacturer
CALT
Mission
Spacecraft
Bus & Motor
Unknown
Mass
~200 kg wet, ~200 kg dry
Launch date (UTC)
2021-11-03 (5 years ago)
Launch vehicle
Unknown
Launch site
Jiuquan Satellite Launch Center, China (JSC)
Object type
Payload
Rocket body
Debris
Shape & HBR
Cyl + Cone, 1.5 m
Radar Cross Section
8.247 m², Large (>1 m²)

Expand to show TLE details & history
Last TLE update: 2 days ago

TLE from 2 days ago
0 YZ-1S DEB
1 49385U 21099C   26171.38177323  .00001946  00000-0  29861-3 0  9990
2 49385  98.2790 316.9569 0006267 354.2786   5.8349 14.74796997247602
Epoch: 2026-06-20T09:09Z
TLE epoch observation values (Epoch: 2026-06-20T09:09:45.207Z)
Latitude
-0.00003°
Longitude
-89.07866°
Altitude
644.419 km
Speed
7.538 km/s
True Right ascension
21h 07m 49s
True Declination
0° 00' 00"
Sunlit
Object was in full shadow at epoch
Visualization orbit readout
Latitude
Unknown
Longitude
Unknown
Altitude
Unknown
Speed
Unknown
Apparent Right ascension
Unknown
Apparent Declination
Unknown
Sunlit
N/A
Visualization observer readout
Local Sidereal Time
21:24:01
Azimuth
Unknown
Elevation
Unknown
Doppler factor
Unknown
Orbital elements
Apogee altitude
647.261 km
Perigee altitude
638.461 km
Semi-major axis
7,020.998 km
Eccentricity
0.00063
Inclination
98.279°
RAAN
316.9569°
Arg. of periapsis
354.2786°
True anomaly
5.84221°
Mean anomaly
5.8349°
Eccentric anomaly
5.83855°
Mean motion
3.68931 °/min
Orbital period
97.58 mins
BSTAR
0.00029861
Loading maneuver chart data...
Computing Atmospheric mass density...
Loading historical data...
Loading historical data...
Loading historical data...
Loading historical data...
Loading historical data...
Loading historical data...
Loading historical data...
Other satellites on launch #99 in the year 2021 (2021-11-03 UTC)

Documentation

Showing up to 5 results
|